Time,TemperatureF,DewpointF,PressureIn,WindDirection,WindDirectionDegrees,WindSpeedMPH,WindSpeedGustMPH,Humidity,HourlyPrecipIn,Conditions,Clouds,dailyrainin,SoftwareType,DateUTC
2013-02-27 00:02:00,30.0,28.0,29.85,West,275,0.0,-999.0,93,-99.99,,,-99.99,,2013-02-27 05:02:00,
2013-02-27 00:12:00,30.0,28.0,29.85,West,275,0.0,-999.0,93,-99.99,,,-99.99,,2013-02-27 05:12:00,
2013-02-27 00:22:00,31.0,29.0,29.81,West,270,0.0,-999.0,93,-99.99,,,-99.99,,2013-02-27 05:22:00,
2013-02-27 00:32:00,30.0,28.0,29.83,West,270,0.0,-999.0,93,-99.99,,,-99.99,,2013-02-27 05:32:00,
2013-02-27 00:42:00,30.0,28.0,29.83,West,270,0.0,-999.0,93,-99.99,,,-99.99,,2013-02-27 05:42:00,
2013-02-27 00:52:00,30.0,28.0,29.79,West,270,0.0,-999.0,94,-99.99,,,-99.99,,2013-02-27 05:52:00,
2013-02-27 01:02:00,30.0,28.0,29.82,WNW,299,0.0,-999.0,94,-99.99,,,-99.99,,2013-02-27 06:02:00,
2013-02-27 01:11:00,30.0,28.0,29.82,WNW,299,0.0,-999.0,94,-99.99,,,-99.99,,2013-02-27 06:11:00,
2013-02-27 01:22:00,30.0,28.0,29.78,WNW,299,0.0,-999.0,92,-99.99,,,-99.99,,2013-02-27 06:22:00,
2013-02-27 01:33:00,30.0,28.0,29.82,WNW,299,0.0,-999.0,91,-99.99,,,-99.99,,2013-02-27 06:33:00,
2013-02-27 01:42:00,30.0,28.0,29.82,WNW,299,0.0,-999.0,91,-99.99,,,-99.99,,2013-02-27 06:42:00,
2013-02-27 01:52:00,29.0,27.0,29.80,WNW,299,0.0,-999.0,91,-99.99,,,-99.99,,2013-02-27 06:52:00,
2013-02-27 02:01:00,29.0,27.0,29.80,WNW,299,0.0,-999.0,91,-99.99,,,-99.99,,2013-02-27 07:01:00,
2013-02-27 02:12:00,29.0,27.0,29.80,WNW,299,0.0,-999.0,91,-99.99,,,-99.99,,2013-02-27 07:12:00,
2013-02-27 02:22:00,29.0,27.0,29.76,WNW,299,0.0,-999.0,93,-99.99,,,-99.99,,2013-02-27 07:22:00,
2013-02-27 02:32:00,29.0,27.0,29.79,WNW,299,0.0,-999.0,93,-99.99,,,-99.99,,2013-02-27 07:32:00,
2013-02-27 02:42:00,29.0,27.0,29.79,WNW,299,0.0,-999.0,93,-99.99,,,-99.99,,2013-02-27 07:42:00,
2013-02-27 02:52:00,29.0,27.0,29.75,WNW,299,0.0,-999.0,93,-99.99,,,-99.99,,2013-02-27 07:52:00,
2013-02-27 03:01:00,29.0,27.0,29.79,WNW,299,0.0,-999.0,93,-99.99,,,-99.99,,2013-02-27 08:01:00,
2013-02-27 03:11:00,29.0,27.0,29.79,WNW,299,0.0,-999.0,93,-99.99,,,-99.99,,2013-02-27 08:11:00,
2013-02-27 03:22:00,29.0,27.0,29.75,WNW,299,0.0,-999.0,93,-99.99,,,-99.99,,2013-02-27 08:22:00,
2013-02-27 03:32:00,29.0,27.0,29.78,WNW,299,0.0,-999.0,92,-99.99,,,-99.99,,2013-02-27 08:32:00,
2013-02-27 03:42:00,29.0,27.0,29.78,WNW,299,0.0,-999.0,92,-99.99,,,-99.99,,2013-02-27 08:42:00,
2013-02-27 03:53:00,29.0,27.0,29.78,WNW,299,0.0,-999.0,92,-99.99,,,-99.99,,2013-02-27 08:53:00,
2013-02-27 04:02:00,29.0,27.0,29.78,WNW,299,0.0,-999.0,92,-99.99,,,-99.99,,2013-02-27 09:02:00,
2013-02-27 04:12:00,29.0,27.0,29.78,WNW,299,0.0,-999.0,92,-99.99,,,-99.99,,2013-02-27 09:12:00,
2013-02-27 07:53:00,31.0,29.0,29.66,WNW,300,0.0,-999.0,92,-99.99,,,-99.99,,2013-02-27 12:53:00,
2013-02-27 08:03:00,30.0,28.0,29.68,WNW,299,0.0,-999.0,93,-99.99,,,-99.99,,2013-02-27 13:03:00,
2013-02-27 08:12:00,30.0,28.0,29.68,WNW,299,0.0,-999.0,93,-99.99,,,-99.99,,2013-02-27 13:12:00,
2013-02-27 08:22:00,33.0,30.0,29.64,West,280,1.0,-999.0,87,-99.99,,,-99.99,,2013-02-27 13:22:00,
2013-02-27 08:32:00,34.0,28.0,29.66,NW,311,4.0,-999.0,80,-99.99,,,-99.99,,2013-02-27 13:32:00,
2013-02-27 08:42:00,34.0,28.0,29.66,NW,311,4.0,-999.0,80,-99.99,,,-99.99,,2013-02-27 13:42:00,
2013-02-27 08:52:00,36.0,29.0,29.66,NW,313,4.0,-999.0,75,-99.99,,,-99.99,,2013-02-27 13:52:00,
2013-02-27 09:02:00,36.0,29.0,29.66,NW,313,4.0,-999.0,75,-99.99,,,-99.99,,2013-02-27 14:02:00,
2013-02-27 09:12:00,36.0,29.0,29.66,NW,313,4.0,-999.0,75,-99.99,,,-99.99,,2013-02-27 14:12:00,
2013-02-27 09:22:00,37.0,29.0,29.61,WNW,296,4.0,-999.0,74,-99.99,,,-99.99,,2013-02-27 14:22:00,
2013-02-27 09:32:00,37.0,29.0,29.64,NNW,338,5.0,-999.0,73,-99.99,,,-99.99,,2013-02-27 14:32:00,
2013-02-27 09:42:00,37.0,29.0,29.64,NNW,338,5.0,-999.0,73,-99.99,,,-99.99,,2013-02-27 14:42:00,
2013-02-27 09:53:00,37.0,30.0,29.59,NW,315,6.0,-999.0,75,-99.99,,,-99.99,,2013-02-27 14:53:00,
2013-02-27 10:02:00,37.0,30.0,29.61,NW,312,6.0,-999.0,75,-99.99,,,-99.99,,2013-02-27 15:02:00,
2013-02-27 10:12:00,37.0,30.0,29.61,NW,312,6.0,-999.0,75,-99.99,,,-99.99,,2013-02-27 15:12:00,
2013-02-27 10:23:00,39.0,31.0,29.57,NW,320,7.0,-999.0,73,-99.99,,,-99.99,,2013-02-27 15:23:00,
2013-02-27 10:32:00,38.0,30.0,29.59,West,280,7.0,-999.0,72,-99.99,,,-99.99,,2013-02-27 15:32:00,
2013-02-27 10:42:00,38.0,30.0,29.59,West,280,7.0,-999.0,72,-99.99,,,-99.99,,2013-02-27 15:42:00,
2013-02-27 10:52:00,39.0,31.0,29.56,NNW,341,7.0,-999.0,72,-99.99,,,-99.99,,2013-02-27 15:52:00,
2013-02-27 11:02:00,38.0,30.0,29.58,WNW,283,9.0,-999.0,73,-99.99,,,-99.99,,2013-02-27 16:02:00,
2013-02-27 11:12:00,38.0,30.0,29.58,WNW,283,9.0,-999.0,73,-99.99,,,-99.99,,2013-02-27 16:12:00,
2013-02-27 11:22:00,38.0,30.0,29.57,WSW,243,7.0,-999.0,72,-99.99,,,-99.99,,2013-02-27 16:22:00,
2013-02-27 11:32:00,38.0,30.0,29.57,WSW,243,7.0,-999.0,72,-99.99,,,-99.99,,2013-02-27 16:32:00,
2013-02-27 11:42:00,38.0,30.0,29.57,WSW,243,7.0,-999.0,72,-99.99,,,-99.99,,2013-02-27 16:42:00,
2013-02-27 11:52:00,38.0,31.0,29.54,North,356,5.0,-999.0,75,-99.99,,,-99.99,,2013-02-27 16:52:00,
2013-02-27 12:02:00,38.0,31.0,29.57,NW,324,5.0,-999.0,76,-99.99,,,-99.99,,2013-02-27 17:02:00,
2013-02-27 12:11:00,38.0,31.0,29.57,NW,324,5.0,-999.0,76,-99.99,,,-99.99,,2013-02-27 17:11:00,
2013-02-27 12:21:00,37.0,32.0,29.53,WSW,258,6.0,-999.0,81,-99.99,,,-99.99,,2013-02-27 17:21:00,
2013-02-27 12:32:00,36.0,31.0,29.56,WSW,258,7.0,-999.0,82,-99.99,,,-99.99,,2013-02-27 17:32:00,
2013-02-27 12:42:00,36.0,31.0,29.56,WSW,258,7.0,-999.0,82,-99.99,,,-99.99,,2013-02-27 17:42:00,
2013-02-27 12:52:00,35.0,32.0,29.51,NW,308,5.0,-999.0,87,-99.99,,,-99.99,,2013-02-27 17:52:00,
2013-02-27 13:02:00,34.0,30.0,29.53,NW,312,6.0,-999.0,86,-99.99,,,-99.99,,2013-02-27 18:02:00,
2013-02-27 13:11:00,34.0,30.0,29.53,NW,312,6.0,-999.0,86,-99.99,,,-99.99,,2013-02-27 18:11:00,
2013-02-27 13:22:00,36.0,31.0,29.50,NNW,347,7.0,-999.0,82,-99.99,,,-99.99,,2013-02-27 18:22:00,
2013-02-27 13:32:00,35.0,31.0,29.53,WNW,299,7.0,-999.0,84,-99.99,,,-99.99,,2013-02-27 18:32:00,
2013-02-27 13:42:00,35.0,31.0,29.53,WNW,299,7.0,-999.0,84,-99.99,,,-99.99,,2013-02-27 18:42:00,
2013-02-27 13:52:00,35.0,31.0,29.52,NNW,330,9.0,-999.0,85,-99.99,,,-99.99,,2013-02-27 18:52:00,
2013-02-27 14:02:00,35.0,31.0,29.52,NNW,330,9.0,-999.0,85,-99.99,,,-99.99,,2013-02-27 19:02:00,
2013-02-27 14:12:00,35.0,31.0,29.52,NNW,330,9.0,-999.0,85,-99.99,,,-99.99,,2013-02-27 19:12:00,
2013-02-27 14:22:00,36.0,30.0,29.47,NNE,18,9.0,-999.0,79,-99.99,,,-99.99,,2013-02-27 19:22:00,
2013-02-27 14:32:00,36.0,30.0,29.50,WSW,238,10.0,-999.0,78,-99.99,,,-99.99,,2013-02-27 19:32:00,
2013-02-27 14:42:00,36.0,30.0,29.50,WSW,238,10.0,-999.0,78,-99.99,,,-99.99,,2013-02-27 19:42:00,
2013-02-27 14:52:00,38.0,30.0,29.46,NW,317,8.0,-999.0,73,-99.99,,,-99.99,,2013-02-27 19:52:00,
2013-02-27 15:02:00,37.0,30.0,29.48,NW,304,9.0,-999.0,75,-99.99,,,-99.99,,2013-02-27 20:02:00,
2013-02-27 15:12:00,37.0,30.0,29.48,NW,304,9.0,-999.0,75,-99.99,,,-99.99,,2013-02-27 20:12:00,
2013-02-27 15:22:00,38.0,30.0,29.45,WSW,255,9.0,-999.0,74,-99.99,,,-99.99,,2013-02-27 20:22:00,
2013-02-27 15:32:00,36.0,29.0,29.47,WNW,297,9.0,-999.0,77,-99.99,,,-99.99,,2013-02-27 20:32:00,
2013-02-27 15:42:00,36.0,29.0,29.47,WNW,297,9.0,-999.0,77,-99.99,,,-99.99,,2013-02-27 20:42:00,
2013-02-27 15:53:00,37.0,31.0,29.44,SW,224,8.0,-999.0,78,-99.99,,,-99.99,,2013-02-27 20:53:00,
2013-02-27 16:02:00,37.0,29.0,29.47,NW,320,8.0,-999.0,74,-99.99,,,-99.99,,2013-02-27 21:02:00,
2013-02-27 16:11:00,37.0,29.0,29.47,NW,320,8.0,-999.0,74,-99.99,,,-99.99,,2013-02-27 21:11:00,
2013-02-27 16:22:00,37.0,29.0,29.44,West,271,10.0,-999.0,73,-99.99,,,-99.99,,2013-02-27 21:22:00,
2013-02-27 16:32:00,37.0,29.0,29.47,WNW,294,10.0,-999.0,73,-99.99,,,-99.99,,2013-02-27 21:32:00,
2013-02-27 16:42:00,37.0,29.0,29.47,WNW,294,10.0,-999.0,73,-99.99,,,-99.99,,2013-02-27 21:42:00,
2013-02-27 16:52:00,37.0,30.0,29.42,West,270,7.0,-999.0,75,-99.99,,,-99.99,,2013-02-27 21:52:00,
2013-02-27 17:02:00,36.0,29.0,29.44,WNW,289,7.0,-999.0,75,-99.99,,,-99.99,,2013-02-27 22:02:00,
2013-02-27 17:12:00,36.0,29.0,29.44,WNW,289,7.0,-999.0,75,-99.99,,,-99.99,,2013-02-27 22:12:00,
2013-02-27 17:22:00,36.0,29.0,29.41,NNW,342,9.0,-999.0,74,-99.99,,,-99.99,,2013-02-27 22:22:00,
2013-02-27 17:32:00,36.0,29.0,29.44,West,264,10.0,-999.0,74,-99.99,,,-99.99,,2013-02-27 22:32:00,
2013-02-27 17:42:00,36.0,29.0,29.44,West,264,10.0,-999.0,74,-99.99,,,-99.99,,2013-02-27 22:42:00,
2013-02-27 17:52:00,36.0,29.0,29.41,NNW,341,10.0,-999.0,74,-99.99,,,-99.99,,2013-02-27 22:52:00,
2013-02-27 18:01:00,36.0,28.0,29.44,WNW,289,13.0,-999.0,72,-99.99,,,-99.99,,2013-02-27 23:01:00,
2013-02-27 18:11:00,36.0,28.0,29.44,WNW,289,13.0,-999.0,72,-99.99,,,-99.99,,2013-02-27 23:11:00,
2013-02-27 18:22:00,35.0,27.0,29.43,NW,325,9.0,-999.0,73,-99.99,,,-99.99,,2013-02-27 23:22:00,
2013-02-27 18:32:00,35.0,27.0,29.43,NW,325,9.0,-999.0,73,-99.99,,,-99.99,,2013-02-27 23:32:00,
2013-02-27 18:42:00,35.0,27.0,29.43,NW,325,9.0,-999.0,73,-99.99,,,-99.99,,2013-02-27 23:42:00,
2013-02-27 18:53:00,36.0,28.0,29.40,NW,311,9.0,-999.0,73,-99.99,,,-99.99,,2013-02-27 23:53:00,
2013-02-27 19:02:00,35.0,27.0,29.44,NNW,340,9.0,-999.0,72,-99.99,,,-99.99,,2013-02-28 00:02:00,
2013-02-27 19:13:00,35.0,27.0,29.44,NNW,340,9.0,-999.0,72,-99.99,,,-99.99,,2013-02-28 00:13:00,
2013-02-27 19:22:00,36.0,28.0,29.40,NW,307,9.0,-999.0,72,-99.99,,,-99.99,,2013-02-28 00:22:00,
2013-02-27 19:32:00,35.0,27.0,29.41,West,272,9.0,-999.0,72,-99.99,,,-99.99,,2013-02-28 00:32:00,
2013-02-27 19:42:00,35.0,27.0,29.41,West,272,9.0,-999.0,72,-99.99,,,-99.99,,2013-02-28 00:42:00,
2013-02-27 19:52:00,33.0,28.0,29.37,WNW,291,9.0,-999.0,83,-99.99,,,-99.99,,2013-02-28 00:52:00,
2013-02-27 20:01:00,32.0,28.0,29.39,West,263,5.0,-999.0,85,-99.99,,,-99.99,,2013-02-28 01:01:00,
2013-02-27 20:11:00,32.0,28.0,29.39,West,263,5.0,-999.0,85,-99.99,,,-99.99,,2013-02-28 01:11:00,
2013-02-27 20:22:00,33.0,29.0,29.36,WNW,295,4.0,-999.0,85,-99.99,,,-99.99,,2013-02-28 01:22:00,
2013-02-27 20:32:00,33.0,29.0,29.36,WNW,295,4.0,-999.0,85,-99.99,,,-99.99,,2013-02-28 01:32:00,
2013-02-27 20:42:00,33.0,29.0,29.36,WNW,295,4.0,-999.0,85,-99.99,,,-99.99,,2013-02-28 01:42:00,
2013-02-27 20:52:00,33.0,29.0,29.36,WSW,238,6.0,-999.0,85,-99.99,,,-99.99,,2013-02-28 01:52:00,
2013-02-27 21:01:00,32.0,28.0,29.38,West,264,7.0,-999.0,85,-99.99,,,-99.99,,2013-02-28 02:01:00,
2013-02-27 21:11:00,32.0,28.0,29.38,West,264,7.0,-999.0,85,-99.99,,,-99.99,,2013-02-28 02:11:00,
2013-02-27 21:22:00,33.0,29.0,29.34,West,280,9.0,-999.0,85,-99.99,,,-99.99,,2013-02-28 02:22:00,
2013-02-27 21:32:00,32.0,28.0,29.37,WSW,251,8.0,-999.0,85,-99.99,,,-99.99,,2013-02-28 02:32:00,
2013-02-27 21:42:00,32.0,28.0,29.37,WSW,251,8.0,-999.0,85,-99.99,,,-99.99,,2013-02-28 02:42:00,
2013-02-27 21:52:00,32.0,28.0,29.37,WSW,251,8.0,-999.0,85,-99.99,,,-99.99,,2013-02-28 02:52:00,
2013-02-27 22:02:00,32.0,28.0,29.36,East,92,6.0,-999.0,85,-99.99,,,-99.99,,2013-02-28 03:02:00,
2013-02-27 22:11:00,32.0,28.0,29.36,East,92,6.0,-999.0,85,-99.99,,,-99.99,,2013-02-28 03:11:00,
2013-02-27 22:22:00,33.0,29.0,29.33,NW,326,3.0,-999.0,86,-99.99,,,-99.99,,2013-02-28 03:22:00,
2013-02-27 22:32:00,33.0,29.0,29.36,WNW,291,4.0,-999.0,86,-99.99,,,-99.99,,2013-02-28 03:32:00,
2013-02-27 22:42:00,33.0,29.0,29.36,WNW,291,4.0,-999.0,86,-99.99,,,-99.99,,2013-02-28 03:42:00,
2013-02-27 22:52:00,33.0,30.0,29.32,NNW,341,4.0,-999.0,87,-99.99,,,-99.99,,2013-02-28 03:52:00,
2013-02-27 23:02:00,32.0,29.0,29.34,NW,309,4.0,-999.0,88,-99.99,,,-99.99,,2013-02-28 04:02:00,
2013-02-27 23:11:00,32.0,29.0,29.34,NW,309,4.0,-999.0,88,-99.99,,,-99.99,,2013-02-28 04:11:00,
2013-02-27 23:22:00,33.0,29.0,29.31,West,259,3.0,-999.0,86,-99.99,,,-99.99,,2013-02-28 04:22:00,
2013-02-27 23:32:00,33.0,29.0,29.34,West,259,4.0,-999.0,86,-99.99,,,-99.99,,2013-02-28 04:32:00,
2013-02-27 23:42:00,33.0,29.0,29.34,West,259,4.0,-999.0,86,-99.99,,,-99.99,,2013-02-28 04:42:00,
2013-02-27 23:52:00,33.0,29.0,29.31,WNW,297,4.0,-999.0,85,-99.99,,,-99.99,,2013-02-28 04:52:00,